Location: Sungai Bunut
(2.6333°N, 113.7333°E)
Time: 21:59:52
(UTC+00:00)

Altair - Visible Passes

Search period start: 06 December 2023 00:00
Search period end: 16 December 2023 00:00
Orbit: 1501 x 1682 km, 47.2° (Epoch: 05 December)

Date Brightness Start Highest point End Pass type
(mag) Time Alt. Az. Time Alt. Az. Time Alt. Az.
06 Dec 10.2 11:30:06 10° WSW 11:33:36 12° SW 11:37:10 10° SSW visible
06 Dec 8.8 20:06:25 10° SSW 20:15:43 40° SE 20:24:47 10° ENE visible
07 Dec 10.1 11:03:40 10° WSW 11:08:19 15° SW 11:13:02 10° SSW visible
07 Dec 8.9 19:41:26 10° SSW 19:50:27 36° SE 19:59:17 10° ENE visible
07 Dec 7.8 21:45:26 10° WSW 21:55:08 52° NW 22:04:36 10° NNE visible
08 Dec 10.0 10:37:33 10° W 10:43:02 17° SW 10:48:37 10° S visible
08 Dec 9.0 19:16:30 10° S 19:25:12 32° SE 19:33:44 10° ENE visible
08 Dec 7.7 21:20:01 10° SW 21:29:54 58° NW 21:39:33 10° NNE visible
09 Dec 9.1 18:51:38 10° S 18:59:56 28° SE 19:08:06 10° ENE visible
09 Dec 7.6 20:54:39 10° SW 21:04:40 64° NW 21:14:28 10° NNE visible
10 Dec 9.2 18:26:49 10° S 18:34:39 25° SE 18:42:23 10° E visible
10 Dec 7.5 20:29:19 10° SW 20:39:27 72° NW 20:49:21 10° NNE visible
11 Dec 9.3 18:02:04 10° S 18:09:22 22° SE 18:16:35 10° E visible
11 Dec 7.4 20:04:01 10° SW 20:14:13 79° NW 20:24:12 10° NE visible
12 Dec 9.5 17:37:25 10° S 17:47:35 16° ESE 17:50:40 10° E visible
12 Dec 7.4 19:46:08 55° SW 19:48:59 87° NW 19:59:01 10° NE visible
12 Dec 8.7 21:47:46 10° W 21:54:05 18° NW 22:00:19 10° N visible
13 Dec 9.9 17:27:59 - E 17:27:59 - E 17:12:46 10° S visible
13 Dec 7.8 19:26:15 58° NE 19:26:15 58° NE 19:33:48 10° NE visible
13 Dec 8.6 21:24:30 16° WNW 21:28:45 21° NW 21:35:40 10° N visible
14 Dec 8.8 19:04:49 27° NE 19:04:49 27° NE 19:08:33 10° NE visible
14 Dec 8.4 21:03:00 24° NW 21:03:26 24° NW 21:10:55 10° N visible
15 Dec 9.6 18:42:43 12° NE 18:42:43 12° NE 18:43:17 10° NE visible
15 Dec 8.6 20:40:51 24° NNW 20:40:51 24° NNW 20:46:07 10° N visible
